Regional Weather Roundup
Issued by NWS

Home | Current Version | Previous Version | Graphics & Text | Print | Product List | Glossary On
Versions: 1 2 3 4 5 6 7 8 9 10 11 12 13 14 15 16 17 18 19 20 21 22 23 24 25 26 27 28 29 30 31 32 33 34 35 36 37 38 39 40 41 42 43 44 45 46 47 48 49 50
000
ASUS45 KCYS 010010
RWRWY

WYOMING REGIONAL WEATHER ROUNDUP
NATIONAL WEATHER SERVICE CHEYENNE WY
600 PM MDT MON AUG 31 2015

NOTE:  "FAIR" INDICATES FEW OR NO CLOUDS BELOW 12,000 FEET
WITH NO SIGNIFICANT WEATHER AND/OR OBSTRUCTIONS TO VISIBILITY.

WYZ001-010100-
YELLOWSTONE NATIONAL PARK

CITY           SKY/WX    TMP DP  RH WIND       PRES   REMARKS
LK YELLOWSTONE   N/A     60  28  29 VRB5      30.23S
6HR MIN TEMP:  58; 6HR MAX TEMP:  65;

W YELLOWSTONE  NOT AVBL

$$
WYZ002>013-054>058-071-098>099-010100-
NORTHERN WYOMING

CITY           SKY/WX    TMP DP  RH WIND       PRES   REMARKS
JACKSON        SUNNY     73  25  16 SW10      30.12R
CODY           FAIR      81  28  15 SW9       29.95S
GREYBULL       FAIR      87  24  10 VRB3      29.87S
6HR MIN TEMP:  76; 6HR MAX TEMP:  88;

WORLAND        FAIR      86  34  15 N7        29.87R
6HR MIN TEMP:  74; 6HR MAX TEMP:  90;

SHERIDAN       FAIR      83  41  22 N7        29.90S
6HR MIN TEMP:  74; 6HR MAX TEMP:  86;

BUFFALO        FAIR      81  42  25 N14       29.96R
6HR MIN TEMP:  68; 6HR MAX TEMP:  86;

GILLETTE       FAIR      86  31  13 N3        29.90F
6HR MIN TEMP:  70; 6HR MAX TEMP:  87;

HULETT         FAIR      75  54  46 E9        29.94F
NEWCASTLE      FAIR      79  48  34 SE20      29.95S

$$
WYZ014>020-022>026-101>103-010100-
CENTRAL WYOMING

CITY           SKY/WX    TMP DP  RH WIND       PRES   REMARKS
BIG PINEY      FAIR      77  23  13 W9G18     30.15S
6HR MIN TEMP:  68; 6HR MAX TEMP:  80;

PINEDALE       FAIR      73  21  14 W13G23    30.16S
DUBOIS         FAIR      72  19  14 NW20G26   30.12S
LANDER         FAIR      85  23  10 N5        29.97S
6HR MIN TEMP:  76; 6HR MAX TEMP:  86;

RIVERTON       FAIR      85  16   7 W17       29.98S
6HR MIN TEMP:  77; 6HR MAX TEMP:  86;

CASPER         FAIR      83  19   9 SW18G26   29.98S
6HR MIN TEMP:  78; 6HR MAX TEMP:  88;

DOUGLAS        CLOUDY    79  48  33 SE9       29.99F
6HR MIN TEMP:  76; 6HR MAX TEMP:  87; 6HR PCP: TRACE;


$$
WYZ021-027>030-104>119-010100-
SOUTHERN WYOMING

CITY           SKY/WX    TMP DP  RH WIND       PRES   REMARKS
EVANSTON       FAIR      76  29  17 W23       30.17F
6HR MIN TEMP:  72; 6HR MAX TEMP:  81;

KEMMERER       FAIR     N/A N/A N/A W16G28    30.18S
FORT BRIDGER   CLEAR     79  28  15 W20G26    30.18S
ROCK SPRINGS   FAIR      71  39  31 SW15      30.14S
6HR MIN TEMP:  69; 6HR MAX TEMP:  77;

DIXON          FAIR      55  49  81 SE15G25   30.24S THUNDER
RAWLINS        FAIR      68  39  34 S14       30.18S
6HR MIN TEMP:  67; 6HR MAX TEMP:  81; 6HR PCP: TRACE;

SARATOGA       CLOUDY    55  46  71 S20G26    30.24F
LARAMIE        FAIR      65  46  50 S7        30.23R
6HR MIN TEMP:  57; 6HR MAX TEMP:  79; 6HR PCP:  0.06;

CHEYENNE       CLOUDY    63  50  62 NW14G23   30.17F
6HR MIN TEMP:  63; 6HR MAX TEMP:  84; 6HR PCP: TRACE;

TORRINGTON     CLOUDY    75  50  41 S16       29.98F
6HR MIN TEMP:  73; 6HR MAX TEMP:  90; 6HR PCP: TRACE;

PINE BLUFFS    FAIR      77  41  27 NW25G35   30.10R

$$


USA.gov is the U.S. government's official web portal to all federal, state and local government web resources and services.